Location: Weymouth Pines Observatory
(42.9326°N, 81.3883°W)
Time: 17:16:45
(UTC-05:00)

Daily predictions for brighter satellites

Satellite Brightness Start Highest point End
(mag) Time Altitude Azimuth Time Altitude Azimuth Time Altitude Azimuth
NOSS 3-1 (C) 4.3 17:06:10 10° NW 17:13:46 84° SW 17:22:07 10° SSE
Cosmos 1484 Rocket 4.4 17:19:35 10° E 17:21:33 14° ENE 17:23:31 10° NNE
Cosmos 1602 3.7 17:17:46 10° N 17:21:44 76° E 17:25:37 10° SSE
ATLAS CENTAUR R/B 3.9 17:19:20 10° WNW 17:22:16 16° NW 17:25:07 10° N
PAYLOAD A 3.9 17:20:54 10° SSE 17:25:38 69° ENE 17:30:32 10° N
IRS-1A Rocket 4.3 17:22:06 10° SSE 17:27:37 87° WSW 17:33:10 10° NNW
Cosmos 1674 Rocket 4.2 17:23:58 10° SSW 17:28:22 60° W 17:32:48 10° N
Cosmos 2154 Rocket 4.0 17:22:30 10° N 17:28:45 86° E 17:35:01 10° S
IDEFIX/ARIANE 42P 2.7 17:26:39 10° SSE 17:31:41 52° ENE 17:36:43 10° N
BREEZE M DEB (TANK) 3.3 17:34:43 10° WNW 17:37:14 32° N 17:42:21 11° ENE
CZ-2C R/B 4.2 17:33:03 10° N 17:37:27 62° WNW 17:41:51 10° SSW
Okean 1 Rocket 3.4 17:33:53 10° NNW 17:38:13 72° W 17:42:30 10° S
Cosmos 1536 2.8 17:34:58 10° N 17:39:03 73° E 17:43:06 10° SSE
COSMO-SKYMED 1 3.8 17:40:01 10° NE 17:43:26 22° E 17:46:48 10° SE
Cosmos 1461 3.7 17:39:53 10° NW 17:43:44 52° WSW 17:47:35 10° SSE
APEX 4.4 17:37:40 10° SSW 17:44:32 85° ESE 17:49:59 10° NNE
Cosmos 1544 Rocket 4.1 17:41:21 10° N 17:45:27 35° ENE 17:49:34 10° SE
Meteor 1-11 Rocket 4.3 17:41:56 10° NNW 17:47:25 60° W 17:52:48 10° S
Cosmos 1975 Rocket 3.0 17:44:50 10° S 17:49:07 71° E 17:53:26 10° NNE
USA 234 3.6 17:43:04 10° NE 17:49:30 61° NNW 17:55:54 10° WSW
Cosmos 372 Rocket 4.0 17:44:45 10° S 17:49:58 72° ESE 17:55:14 10° NNE
MSX 3.9 17:45:08 10° SSE 17:50:43 55° ENE 17:56:20 10° N
SMAP 3.0 17:47:17 10° SSE 17:51:55 81° ENE 17:56:36 10° N
AQUARIUS 4.1 17:48:09 10° SSE 17:52:38 83° ENE 17:57:10 10° NNW
Okean 3 3.8 17:49:33 10° SSW 17:53:50 70° W 17:58:07 10° N
SJ-12 4.0 17:49:54 10° SSE 17:53:59 86° WSW 17:58:07 10° NNW
Cosmos 2263 Rocket 3.6 17:50:37 10° WSW 17:55:45 36° WNW 18:00:58 10° N
Thor Agena Rocket 3.5 17:50:51 10° NNE 17:56:04 84° ESE 18:01:19 10° SSW
CZ-3B DEB 2.5 17:55:08 10° SSW 17:58:35 45° ESE 18:05:05 15° NE
Cosmos 1125 Rocket 4.0 17:53:56 10° SSW 17:59:11 65° WNW 18:04:30 10° NNE
CZ-4 R/B 2.1 17:56:10 10° S 18:00:18 60° W 18:04:27 10° NNW
Cosmos 494 Rocket 4.3 18:00:43 10° N 18:05:40 41° ENE 18:10:38 10° SE
Cosmos 1536 Rocket 4.2 18:01:41 10° SSE 18:05:40 33° E 18:09:13 13° NNE
ATLAS 2AS CENTAUR R/B 3.0 18:01:07 10° NNW 18:09:12 63° NE 18:16:46 10° SE
Cosmos 1812 3.1 18:05:46 10° SSE 18:09:23 40° E 18:12:08 16° NNE
SL-8 Rocket 3.9 18:03:13 10° N 18:09:26 83° E 18:15:35 10° S
Meteor 1-12 Rocket 4.4 18:05:55 10° N 18:11:32 51° ENE 18:17:12 10° SSE
Cosmos 2251 Rocket 3.6 18:07:03 10° NNW 18:12:20 55° ENE 18:17:33 10° SE
YAOGAN 1 3.0 18:08:09 10° S 18:12:26 65° W 18:16:45 10° NNW
Abrixas 3.8 18:15:29 10° WNW 18:18:05 27° N 18:18:36 25° NNE
Cosmos 2366 rocket 4.0 18:12:32 10° N 18:18:55 72° E 18:25:13 10° SSE
Cosmos 1975 3.2 18:15:25 10° N 18:19:16 39° ENE 18:23:05 10° SSE
Cosmos 2218 Rocket 3.9 18:12:58 10° N 18:19:19 82° E 18:25:33 10° S
OTV 4 2.5 18:19:20 10° WSW 18:21:45 22° SSW 18:23:24 15° SSE
Cosmos 1844 Rocket 2.6 18:16:45 10° SSW 18:22:21 88° ESE 18:27:30 13° NNE
Cosmos 1959 Rocket 4.5 18:19:47 10° N 18:25:58 89° W 18:32:12 10° S
Cosmos 1844 3.6 18:23:47 10° SSW 18:29:20 75° ESE 18:33:29 18° NNE
SL-27 R/B 2.5 18:25:40 10° NNW 18:29:21 86° WSW 18:33:00 10° SSE
GEOS 3 Rocket 3.5 18:25:48 10° SE 18:30:56 89° ENE 18:36:05 10° NW
SKYMED 2 3.4 18:27:57 14° NNE 18:31:44 72° ESE 18:36:03 10° S
Cosmos 1455 Rocket 3.0 18:31:00 10° N 18:35:25 86° W 18:39:50 10° S
SL-8 R/B 4.4 18:33:45 10° SSW 18:38:07 36° SE 18:39:03 33° ESE
ISS -3.4 18:35:12 10° WSW 18:38:30 77° NNW 18:38:49 68° NNE
BREEZE-M R/B 4.0 18:35:30 10° SW 18:45:41 67° SSE 18:47:38 40° E
Cosmos 2278 Rocket 2.1 18:42:07 10° S 18:47:41 65° ESE 18:50:04 35° NE
Meteor 1-13 Rocket 4.4 18:43:51 10° SSE 18:49:11 46° E 18:50:26 40° ENE
BREEZE-M DEB (TANK) 4.4 18:45:17 10° WNW 18:51:32 34° NNW 18:52:05 32° N
Cosmos 1809 Rocket 4.3 18:45:25 10° N 18:51:36 73° E 18:57:42 10° SSE
Cosmos 1821 Rocket 4.2 18:48:54 10° N 19:01:32 - SSE 18:54:31 42° ENE
Cosmos 1484 Rocket 3.9 18:52:03 10° S 18:55:40 44° W 18:59:17 10° NNW
Cosmos 1238 Rocket 4.3 19:01:18 10° SW 19:03:50 25° WNW 19:04:43 22° NW
Cosmos 2082 Rocket 2.7 19:06:37 10° NNW 19:10:50 42° NNE 19:10:50 42° NNE
Nadezhda 3 Rocket 3.9 19:09:15 10° S 19:15:26 90° E 19:21:20 12° N
Okean 1 4.5 19:12:38 10° SSW 19:16:29 42° WNW 19:17:54 30° NNW
COSMO-SKYMED 1 4.1 19:16:32 15° N 19:19:39 34° WNW 19:23:35 10° SW
Cosmos 1833 Rocket 3.6 19:14:50 10° NNW 19:18:13 33° N 19:18:13 33° N
USA 234 4.4 19:29:59 26° NNE 19:31:45 30° NNW 19:37:14 10° WNW
NOSS 3-4 (A) 4.5 19:37:54 10° NNW 19:42:42 39° N 19:42:42 39° N
NOSS 3-4 (C) 4.5 19:38:00 10° NNW 19:42:47 39° N 19:42:47 39° N
NOSS 3-3 (A) 4.4 19:45:45 10° SW 19:51:54 60° NW 19:52:24 58° NNW
NOSS 3-3 (C) 4.3 19:45:50 10° SW 19:51:59 60° NW 19:52:28 59° NNW
ATLAS 2AS CENTAUR R/B 4.4 19:52:50 10° NW 19:59:46 33° WSW 20:06:17 10° S
FALCON 9 R/B 3.5 19:47:12 10° WSW 20:01:43 46° S 20:01:52 45° S
ATLAS 3B CENTAUR R/B 4.4 20:13:43 10° WSW 20:22:05 24° SSW 20:22:05 24° SSW
Cosmos 2278 Rocket 4.3 20:27:58 10° W 20:31:58 22° NW 20:31:58 22° NW
CZ-3B DEB 3.9 20:28:36 10° W 20:34:11 47° NNW 20:34:11 47° NNW
